sat.trackr.live / text

‹ back to catalog

STARLINK-35040

NORAD 65480 · 2025-195Y

PAYLOAD ACTIVE UNKNOWN

§ Identity

Operator
Country
US
Launch date
2025-09-03
Launch site
AFETR
Launch vehicle
Mass (kg)
RCS (m²)

Purposes: comms

External: N2YO · Heavens-Above · Gunter

§ Orbital elements

Epoch: 2026-09-20T04:06:57.682080Z

Period
93.85 min
Inclination
53.1587°
Eccentricity
0.0001624
Mean motion
15.34390549 rev/d
Perigee alt
461.6 km
Apogee alt
463.8 km
Semi-major
6,840.9 km
B*
7.7624e-4
RAAN
70.9826°
Arg perigee
76.6914°
Mean anomaly
283.4269°
Rev number
5,980

§ Raw data

STARLINK-350401 65480U 25195Y   26263.17150095  .00025933  00000+0  77624-3 0  99922 65480  53.1587  70.9826 0001624  76.6914 283.4269 15.34390549 59801

JSON: /api/v1/satellites/65480 · /tle

For live sub-satellite position, see the globe view (requires WebGL).

§ Visibility from observer

Set your observer location to see the next 7 days of passes ≥ 10°. The values pass through the URL so the page stays shareable.

No JS? Fill the form by hand. The geolocation button needs JavaScript.